Tracking 29892 objects as of 21-Nov-2024
HD Live streaming from Space Station
objects crossing your sky now

STARLINK-3806

Track STARLINK-3806 now!
10-day predictions
STARLINK-3806 is classified as:


NORAD ID: 52378
Int'l Code: 2022-045AZ
Perigee: 545.9 km
Apogee: 547.8 km
Inclination: 53.2 °
Period: 95.4 minutes
Semi major axis: 6917 km
RCS: Unknown
Launch date: April 29, 2022
Source: United States (US)
Launch site: AIR FORCE EASTERN TEST RANGE (AFETR)
Your satellite tracking list
Your tracking list is empty




NASA's NSSDC Master Catalog

Two Line Element Set (TLE):
1 52378U 22045AZ  24325.65749986  .00003393  00000-0  23104-3 0  9999
2 52378  53.2147 157.1296 0001342  95.9653 264.1493 15.08859154144360
Source of the keplerian elements: AFSPC